Georgetown, DE

5:56 PM EST on November 23, 2017 (GMT -0500)
Sussex County

Weather History for KGED - August, 2013

Change the Weather History Date:

Thursday, August 22, 2013

  Actual Average Record
Temperature  
Mean Temperature 79 °F 75 °F  
Max Temperature 87 °F 84 °F 96 °F (1968)
Min Temperature 71 °F 66 °F 50 °F (1984)
Degree Days  
Heating Degree Days 0 0  
Month to date heating degree days 0 0  
Since 1 June heating degree days 0 13  
Since 1 July heating degree days 0 0  
Cooling Degree Days 14 10  
Month to date cooling degree days 198 247  
Year to date cooling degree days 1105 947  
Since 1 June cooling degree days 948 853  
Growing Degree Days 28 (Base 50)    
Moisture  
Dew Point 70 °F    
Average Humidity 74    
Maximum Humidity 93    
Minimum Humidity 55    
Precipitation  
Precipitation 0.84 in 0.13 in 5.03 in (1973)
Month to date precipitation 7.00 2.42  
Year to date precipitation 40.72 28.16  
Sea Level Pressure  
Sea Level Pressure 30.05 in    
Wind  
Wind Speed 5 mph (SSW)    
Max Wind Speed 15 mph    
Max Gust Speed 23 mph    
Visibility 7 miles    
Events Rain    
T = Trace of Precipitation, MM = Missing Value Source: NWS Daily Summary

Daily Weather History Graph

Daily Weather History Graph

Search for Another Location

Airport or City:

Trip Planner

Search our weather history database for the weather conditions in past years. The results will help you decide how hot, cold, wet, or windy it might be!

Date:

Astronomy

Aug. 22, 2013 Rise Set
Actual Time 6:21 AM EDT 7:45 PM EDT
Civil Twilight 5:54 AM EDT 8:13 PM EDT
Nautical Twilight 5:20 AM EDT 8:47 PM EDT
Astronomical Twilight 4:45 AM EDT 9:22 PM EDT
Moon 8:30 PM EDT (8/22) 8:06 AM EDT (8/22)
Length of Visible Light 14h 19m
Length of Day
13h 24m
Waning Gibbous, 97% of the Moon is Illuminated
Aug 22
Waning Gibbous
Aug 28
Last Quarter
Sep 5
New
Sep 12
First Quarter
Sep 19
Full

Hourly Weather History & Observations

Time (EDT) Temp. Heat Index Dew Point Humidity Pressure Visibility Wind Dir Wind Speed Gust Speed Precip Events Conditions
12:54 AM 73.0 °F - 68.0 °F 84% 30.12 in 10.0 mi SSW 3.5 mph - N/A   Clear
1:54 AM 73.0 °F - 69.1 °F 87% 30.11 in 9.0 mi SW 4.6 mph - 0.01 in Rain Light Rain
2:28 AM 73.4 °F - 69.8 °F 88% 30.10 in 2.0 mi SSW 5.8 mph - 0.03 in Rain Rain
2:36 AM 73.4 °F - 69.8 °F 88% 30.09 in 4.0 mi Calm Calm - 0.04 in Rain Rain
2:54 AM 73.0 °F - 70.0 °F 90% 30.09 in 8.0 mi West 3.5 mph - 0.04 in Rain Light Rain
3:27 AM 73.4 °F - 69.8 °F 88% 30.09 in 6.0 mi WSW 4.6 mph - 0.02 in Rain Light Rain
3:54 AM 73.0 °F - 70.0 °F 90% 30.08 in 10.0 mi Calm Calm - 0.02 in   Partly Cloudy
4:54 AM 71.1 °F - 69.1 °F 93% 30.07 in 8.0 mi South 4.6 mph - N/A   Partly Cloudy
5:54 AM 71.1 °F - 69.1 °F 93% 30.07 in 7.0 mi SSW 4.6 mph - 0.01 in Rain Light Rain
6:11 AM 71.6 °F - 69.8 °F 94% 30.08 in 1.8 mi WSW 3.5 mph - 0.10 in Rain Heavy Rain
6:19 AM 71.6 °F - 69.8 °F 94% 30.08 in 0.8 mi Variable 3.5 mph - 0.27 in Rain Heavy Rain
6:26 AM 71.6 °F - 69.8 °F 94% 30.06 in 0.8 mi SSE 8.1 mph - 0.45 in Rain Heavy Rain
6:30 AM 73.4 °F - 68.0 °F 83% 30.07 in 1.2 mi South 10.4 mph - 0.45 in Rain Rain
6:33 AM 71.6 °F - 69.8 °F 94% 30.07 in 3.0 mi South 8.1 mph - 0.45 in Rain Light Rain
6:54 AM 72.0 °F - 70.0 °F 93% 30.07 in 10.0 mi South 10.4 mph - 0.47 in   Overcast
7:15 AM 71.6 °F - 69.8 °F 94% 30.08 in 2.5 mi SSE 6.9 mph - 0.05 in Rain Heavy Rain
7:19 AM 71.6 °F - 69.8 °F 94% 30.08 in 1.5 mi SSE 6.9 mph - 0.10 in Rain Heavy Rain
7:29 AM 71.6 °F - 69.8 °F 94% 30.09 in 4.0 mi South 5.8 mph - 0.12 in Rain Light Rain
7:50 AM 71.6 °F - 69.8 °F 94% 30.08 in 10.0 mi SE 5.8 mph - 0.12 in   Overcast
7:54 AM 72.0 °F - 69.1 °F 91% 30.08 in 10.0 mi SE 5.8 mph - 0.12 in   Overcast
8:05 AM 71.6 °F - 69.8 °F 94% 30.08 in 10.0 mi Calm Calm - N/A   Mostly Cloudy
8:54 AM 73.9 °F - 71.1 °F 91% 30.09 in 10.0 mi Calm Calm - N/A   Overcast
9:06 AM 73.4 °F - 69.8 °F 88% 30.08 in 9.0 mi NNW 6.9 mph - N/A   Overcast
9:15 AM 73.4 °F - 69.8 °F 88% 30.08 in 10.0 mi NNE 4.6 mph - N/A   Overcast
9:26 AM 75.2 °F - 69.8 °F 83% 30.07 in 9.0 mi ESE 4.6 mph - 0.01 in Rain Light Rain
9:33 AM 73.4 °F - 71.6 °F 94% 30.07 in 1.8 mi Calm Calm - 0.09 in Rain Heavy Rain
9:38 AM 73.4 °F - 71.6 °F 94% 30.08 in 0.8 mi Calm Calm - 0.14 in Rain Heavy Rain
9:42 AM 73.4 °F - 71.6 °F 94% 30.07 in 1.0 mi East 4.6 mph - 0.15 in Rain Rain
9:47 AM 73.4 °F - 71.6 °F 94% 30.07 in 2.0 mi NE 5.8 mph - 0.16 in Rain Rain
9:54 AM 73.0 °F - 71.1 °F 93% 30.07 in 5.0 mi Calm Calm - 0.16 in Rain Light Rain
10:15 AM 73.4 °F - 71.6 °F 94% 30.07 in 5.0 mi South 4.6 mph - 0.01 in Rain Light Rain
10:35 AM 75.2 °F - 71.6 °F 89% 30.07 in 6.0 mi SSE 3.5 mph - 0.01 in   Overcast
10:47 AM 75.2 °F - 71.6 °F 89% 30.06 in 6.0 mi SSE 4.6 mph - 0.01 in   Overcast
10:54 AM 77.0 °F - 73.0 °F 88% 30.06 in 9.0 mi SSE 5.8 mph - 0.01 in   Overcast
11:09 AM 78.8 °F - 73.4 °F 83% 30.06 in 10.0 mi SSW 6.9 mph - N/A   Overcast
11:33 AM 78.8 °F - 73.4 °F 83% 30.05 in 8.0 mi South 6.9 mph - N/A   Mostly Cloudy
11:47 AM 78.8 °F - 73.4 °F 83% 30.05 in 8.0 mi South 4.6 mph - N/A   Mostly Cloudy
11:54 AM 80.1 °F 84.5 °F 73.9 °F 81% 30.04 in 8.0 mi South 5.8 mph - N/A   Mostly Cloudy
12:04 PM 80.6 °F 85.4 °F 73.4 °F 79% 30.05 in 7.0 mi SW 5.8 mph - N/A   Mostly Cloudy
12:26 PM 80.6 °F 85.4 °F 73.4 °F 79% 30.04 in 7.0 mi WSW 5.8 mph - N/A   Mostly Cloudy
12:38 PM 82.4 °F 88.2 °F 73.4 °F 74% 30.04 in 10.0 mi WSW 5.8 mph - N/A   Scattered Clouds
12:54 PM 84.9 °F 91.4 °F 73.0 °F 67% 30.03 in 10.0 mi WSW 5.8 mph - N/A   Mostly Cloudy
1:54 PM 84.9 °F 90.1 °F 71.1 °F 63% 30.01 in 10.0 mi WSW 8.1 mph - N/A   Partly Cloudy
2:54 PM 84.9 °F 89.4 °F 70.0 °F 61% 29.98 in 10.0 mi WSW 6.9 mph - N/A   Clear
3:54 PM 86.0 °F 90.7 °F 70.0 °F 59% 29.96 in 10.0 mi SW 11.5 mph - N/A   Clear
4:54 PM 86.0 °F 89.4 °F 68.0 °F 55% 29.95 in 10.0 mi Variable 5.8 mph - N/A   Clear
5:54 PM 86.0 °F 89.4 °F 68.0 °F 55% 29.95 in 10.0 mi West 9.2 mph - N/A   Clear
6:54 PM 84.0 °F 87.8 °F 69.1 °F 61% 29.94 in 10.0 mi West 3.5 mph - N/A   Clear
7:54 PM 77.0 °F - 66.0 °F 69% 29.96 in 10.0 mi Calm Calm - N/A   Partly Cloudy
8:54 PM 75.0 °F - 68.0 °F 79% 29.96 in 10.0 mi Calm Calm - N/A   Clear
9:54 PM 73.9 °F - 68.0 °F 82% 29.96 in 10.0 mi SW 3.5 mph - N/A   Clear
10:54 PM 73.0 °F - 69.1 °F 87% 29.96 in 10.0 mi SSW 3.5 mph - N/A   Clear
11:54 PM 73.9 °F - 70.0 °F 87% 29.95 in 9.0 mi SW 3.5 mph - N/A   Clear